Lexington Weather

Lexington, Massachusetts, USA

33°F
10/30/2020 7:28am 
  • Lexington Conditions: Light snow, Mist, Overcast
  • Temperature: 33.4°F / 0.8°CColder 0.9°F than last hour.
  • Dew Point: 32.7°FDecreased 0.9°Fsince last hour.
  • Relative Humidity: 97
  • Wind: Wind from NNE NNE 2 mph, 10-min avg: 2 mph, gust: 6 mph
  • Barometer: 29.78 inRising 0.03  inHg/hr Rising Slowly
  • Visibility: 3 miles
  • Rain Today: 0.09 in
  •   
Southeast Middlesex County - Winter Weather Advisory
 - SEE ALL NEARBY ALERTS -

Regional Weather Roundup
for Boston / Norton, MA

        
000
ASUS41 KBOX 280505
RWRBOX

REGIONAL WEATHER ROUNDUP
NATIONAL WEATHER SERVICE BOSTON/NORTON MA
100 AM EDT WED OCT 28 2020

NOTE:  "FAIR" INDICATES FEW OR NO CLOUDS BELOW 12,000 FEET WITH NO 
SIGNIFICANT WEATHER AND/OR OBSTRUCTIONS TO VISIBILITY.

MAZALL-280600-
EASTERN MASSACHUSETTS
  
CITY           SKY/WX    TMP DP  RH WIND       PRES   REMARKS
BOSTON         CLOUDY    45  37  73 N8        30.18S                  
BEVERLY        CLOUDY    44  38  79 N3        30.17S                  
LAWRENCE       CLOUDY    43  37  79 N5        30.19S                  
BEDFORD        CLOUDY    44  41  89 CALM      30.16S                  
BLUE HILL        N/A     42  37  82 N9        30.15R                  
NORWOOD        CLOUDY    47  37  68 N3        30.17R                  
MARSHFIELD     CLOUDY    50  41  71 VRB7G14   30.16S                  
PLYMOUTH       LGT RAIN  47  42  83 CALM      30.14F                  
TAUNTON        CLOUDY    48  42  80 CALM      30.15F                  
NEW BEDFORD    CLOUDY    49  43  80 S3        30.14F                  
$$

MAZALL-280600-
CAPE COD AND THE ISLANDS
  
CITY           SKY/WX    TMP DP  RH WIND       PRES   REMARKS
FALMOUTH       CLOUDY    48  41  76 CALM      30.14F                  
HYANNIS        CLOUDY    50  42  74 CALM      30.13F                  
CHATHAM        CLOUDY    50  39  66 CALM      30.16S                  
PROVINCETOWN   CLOUDY    50  36  58 N12       30.16S                  
NANTUCKET      CLOUDY   N/A N/A N/A N6        30.15F                  
MARTHAS VNYRD  CLOUDY    50  41  71 CALM      30.15F                  
$$
 
MAZALL-280600-
CENTRAL AND WESTERN MASSACHUSETTS
  
CITY           SKY/WX    TMP DP  RH WIND       PRES   REMARKS
WORCESTER      LGT RAIN  43  39  86 NE3       30.15S                  
FITCHBURG      LGT RAIN  44  41  89 CALM      30.17S                  
ORANGE         CLOUDY    43  42  97 CALM      30.16S                  
SPRINGFIELD    CLOUDY    45  44  94 E3        30.13F                  
WESTFIELD      CLOUDY    46  44  93 NE3       30.14S                  
NORTH ADAMS    CLOUDY    44  41  89 CALM      30.14F                  
PITTSFIELD     LGT RAIN  42  41  96 CALM      30.11F                  
$$
 
RIZALL-280600-
RHODE ISLAND
  
CITY           SKY/WX    TMP DP  RH WIND       PRES   REMARKS
PROVIDENCE     CLOUDY    50  40  68 CALM      30.15F                  
NEWPORT        CLOUDY    49  40  71 SE3       30.14F                  
BLOCK ISLAND   CLOUDY    52  39  61 E6        30.15F                  
SMITHFIELD     CLOUDY    46  44  93 N6        30.16S                  
WESTERLY       CLOUDY    50  41  71 E5        30.14F                  
$$
 
CTZALL-280600-
CONNECTICUT
  
CITY           SKY/WX    TMP DP  RH WIND       PRES   REMARKS
BRADLEY INTL   CLOUDY    47  42  83 N8        30.14S                  
HARTFORD       CLOUDY    51  41  68 N5        30.14S                  
BRIDGEPORT     CLOUDY    54  41  61 N5        30.14F                  
DANBURY        CLOUDY    50  39  66 SE7       30.12F                  
GROTON         CLOUDY    52  41  66 E6        30.13F                  
NEW HAVEN      CLOUDY    53  42  66 S3        30.13F                  
CHESTER        CLOUDY    50  41  71 SE5       30.12F                  
MERIDEN        CLOUDY    51  38  60 CALM      30.13F                  
WILLIMANTIC    CLOUDY    49  42  77 NE3       30.14F                  
OXFORD         CLOUDY    48  40  73 S6        30.13F                  
$$

MEZ002-015-021-024-NHZ003-005-008-011-012-014-VTZ005-008-280600-
NORTHERN NEW ENGLAND
  
CITY           SKY/WX    TMP DP  RH WIND       PRES   REMARKS
PORTLAND ME    LGT RAIN  41  25  53 NE5       30.17F                  
BANGOR ME      PTCLDY    30  21  69 N8        30.18F WCI  22          
CONCORD NH     CLOUDY    41  33  73 W3        30.17S                  
MANCHESTER NH  CLOUDY    43  35  73 N3        30.15F                  
NASHUA NH      CLOUDY    42  40  92 CALM      30.17F                  
PORTSMOUTH NH  CLOUDY    43  36  77 CALM      30.16                   
JAFFREY NH     CLOUDY    40  38  93 CALM      30.15S                  
KEENE NH       CLOUDY    41  40  96 CALM      30.16F                  
BURLINGTON VT  CLOUDY    35  29  78 CALM      30.16F                  
MT. WASHINGTON FOG       18  18 100 W32         N/A  VSB 1/8 WCI  -3  
$$

NYZ052-076-280600-
EASTERN NEW YORK
  
CITY           SKY/WX    TMP DP  RH WIND       PRES   REMARKS
ALBANY         LGT RAIN  38  38 100 N6        30.16F                  
NEW YORK CITY  CLOUDY    56  41  57 E5        30.12F                  
$$
 
ANZALL-280600-
MARINE OBSERVATIONS
  
STATION/POSITION TIME  TEMP    WIND        PRES    VSBY  WAVE
                       AIR SEA DIR/SP/G                  HT/PER
                 (UTC) (F)     (DEG/KT/KT) (MB)    (MI)  (FT/S)
BOSTON BUOY      0450   48 56  360/ 12/ 16 1020.5S         2/ 9
BUZZARDS BAY     0400           30/  7/  8 1022.6F
NANTUCKET SOUND  0450      61   20/  4/  6   N/A           1
MASS BAY-STELLWA 0404   48 56  350/ 10/ 14 1021.0R  1 7/8  2/ 8
ISLE OF SHOALS   0400   44     350/ 11/ 14 1021.7R
S OF BLOCK IS    0426      62                N/A           4/ 8
$$

......................KEY.........................
  SKY/WX - SKY CONDITION/PRESENT WEATHER
  TMP    - TEMPERATURE IN FAHRENHEIT
  DWPT   - DEWPOINT IN FAHRENHEIT
  RH     - RELATIVE HUMIDITY IN PERCENT
  WIND   - DIRECTION AND SPEED IN MPH
  PRES   - MEAN SEA LEVEL PRESSURE IN INCHES OF HG
  WCI    - WIND CHILL INDEX
  VSB    - VISIBILITY IN MILES
  HX     - HEAT INDEX
  TC     - TEMPERATURE IN CELSIUS
  VRB    - VARIABLE WIND DIRECTION
  N/A    - NOT AVAILABLE
  
      

Other recent Regional Weather Roundups

Fri Oct 30, 7:04am

Fri Oct 30, 6:04am

Fri Oct 30, 5:04am

Fri Oct 30, 4:04am

Fri Oct 30, 3:04am

Fri Oct 30, 2:04am

Fri Oct 30, 1:04am

Fri Oct 30, 12:04am

Thu Oct 29, 11:04pm

Thu Oct 29, 10:04pm

Thu Oct 29, 9:04pm

Thu Oct 29, 8:04pm

Thu Oct 29, 7:04pm

Thu Oct 29, 6:04pm

Thu Oct 29, 5:05pm

Thu Oct 29, 4:05pm

Thu Oct 29, 3:05pm

Thu Oct 29, 2:04pm

Thu Oct 29, 1:04pm

Thu Oct 29, 12:04pm

Thu Oct 29, 11:04am

Thu Oct 29, 10:04am

Thu Oct 29, 9:04am

Thu Oct 29, 8:04am

Thu Oct 29, 7:04am

Thu Oct 29, 6:04am

Thu Oct 29, 5:04am

Thu Oct 29, 4:04am

Thu Oct 29, 3:04am

Thu Oct 29, 2:04am

Thu Oct 29, 1:05am

Thu Oct 29, 12:04am

Wed Oct 28, 11:05pm

Wed Oct 28, 10:04pm

Wed Oct 28, 9:04pm

Wed Oct 28, 8:04pm

Wed Oct 28, 7:05pm

Wed Oct 28, 6:04pm

Wed Oct 28, 5:05pm

Wed Oct 28, 4:04pm

Wed Oct 28, 3:04pm

Wed Oct 28, 2:04pm

Wed Oct 28, 1:05pm

Wed Oct 28, 12:05pm

Wed Oct 28, 11:05am

Wed Oct 28, 10:04am

Wed Oct 28, 9:04am

Wed Oct 28, 8:04am

Wed Oct 28, 7:04am

Wed Oct 28, 6:04am

Wed Oct 28, 5:05am

Wed Oct 28, 4:04am

Wed Oct 28, 3:04am

Wed Oct 28, 2:04am

Wed Oct 28, 12:04am

Tue Oct 27, 11:04pm

Tue Oct 27, 10:04pm

Tue Oct 27, 9:05pm

Tue Oct 27, 8:04pm

Tue Oct 27, 7:04pm

Tue Oct 27, 6:04pm

Tue Oct 27, 5:04pm

Tue Oct 27, 4:05pm

Tue Oct 27, 3:04pm

Tue Oct 27, 2:04pm

Tue Oct 27, 1:04pm

Tue Oct 27, 12:04pm

Tue Oct 27, 11:04am

Tue Oct 27, 10:04am

Tue Oct 27, 9:04am

Tue Oct 27, 8:04am

Tue Oct 27, 7:04am

Tue Oct 27, 6:04am

Tue Oct 27, 5:04am

Tue Oct 27, 4:04am

Tue Oct 27, 3:04am

Tue Oct 27, 2:05am

Tue Oct 27, 1:04am

Tue Oct 27, 12:04am

Mon Oct 26, 11:05pm

Mon Oct 26, 10:04pm

Mon Oct 26, 9:04pm

Mon Oct 26, 8:04pm

Mon Oct 26, 7:04pm

Mon Oct 26, 6:04pm

Mon Oct 26, 5:04pm

Mon Oct 26, 4:05pm

Mon Oct 26, 2:04pm

Mon Oct 26, 1:04pm

Mon Oct 26, 12:04pm

Mon Oct 26, 11:05am

Mon Oct 26, 10:04am

Mon Oct 26, 9:04am

Mon Oct 26, 8:04am

Mon Oct 26, 7:04am

Mon Oct 26, 6:04am

Mon Oct 26, 5:04am

Mon Oct 26, 4:04am

Mon Oct 26, 3:04am

Mon Oct 26, 2:04am

Mon Oct 26, 1:04am

Mon Oct 26, 12:04am

Sun Oct 25, 11:05pm

Sun Oct 25, 10:04pm

Sun Oct 25, 9:04pm

Sun Oct 25, 8:04pm

Sun Oct 25, 7:04pm

Sun Oct 25, 6:04pm

Sun Oct 25, 5:04pm

Sun Oct 25, 4:05pm

Sun Oct 25, 3:04pm

Sun Oct 25, 2:04pm

Sun Oct 25, 1:04pm

Sun Oct 25, 12:04pm

Sun Oct 25, 11:04am

Sun Oct 25, 10:04am

Sun Oct 25, 9:04am

Sun Oct 25, 8:04am

Sun Oct 25, 7:04am

Sun Oct 25, 6:04am

Sun Oct 25, 5:04am

Sun Oct 25, 4:04am

Sun Oct 25, 3:04am

Sun Oct 25, 2:04am

Sun Oct 25, 1:05am

Sun Oct 25, 12:04am

Sat Oct 24, 11:04pm

Sat Oct 24, 10:04pm

Sat Oct 24, 9:04pm

Sat Oct 24, 8:04pm

Sat Oct 24, 7:04pm

Sat Oct 24, 6:04pm

Sat Oct 24, 5:05pm

Sat Oct 24, 4:04pm

Sat Oct 24, 3:04pm

Sat Oct 24, 2:04pm

Sat Oct 24, 1:05pm

Sat Oct 24, 12:04pm

Sat Oct 24, 11:05am

Sat Oct 24, 10:05am

Sat Oct 24, 9:04am

Sat Oct 24, 8:04am

Sat Oct 24, 7:04am

Sat Oct 24, 6:04am

Sat Oct 24, 5:04am

Sat Oct 24, 4:04am

Sat Oct 24, 3:04am

Sat Oct 24, 2:04am

Sat Oct 24, 1:05am

Sat Oct 24, 12:04am

Fri Oct 23, 11:04pm

Fri Oct 23, 10:04pm

Fri Oct 23, 9:04pm

Fri Oct 23, 8:05pm

Fri Oct 23, 7:04pm

Fri Oct 23, 6:04pm

Fri Oct 23, 5:05pm

Fri Oct 23, 4:04pm

Fri Oct 23, 3:04pm

Fri Oct 23, 2:05pm

Fri Oct 23, 1:04pm

Fri Oct 23, 12:04pm

Fri Oct 23, 11:04am

Fri Oct 23, 10:04am

Fri Oct 23, 9:04am

Fri Oct 23, 8:04am

Meta data:

ID: 3bb2b75e-cd9a-4c7e-9c47-cfa78efd7157
Link: https://api.weather.gov/products/3bb2b75e-cd9a-4c7e-9c47-cfa78efd7157